,

(GMT )
Al Udeid

Weather History for KQIR - April, 2013

Change the Weather History Date:

Wednesday, April 10, 2013

  Actual Average Record
Temperature  
Mean Temperature 82 °F -  
Max Temperature 95 °F - - ()
Min Temperature 69 °F - - ()
Cooling Degree Days 17    
Growing Degree Days 32 (Base 50)    
Moisture  
Dew Point 61 °F    
Average Humidity 58    
Maximum Humidity 89    
Minimum Humidity 16    
Precipitation  
Precipitation 0.00 in - - ()
Sea Level Pressure  
Sea Level Pressure 29.79 in    
Wind  
Wind Speed 7 mph ()    
Max Wind Speed 17 mph    
Max Gust Speed 24 mph    
Visibility 6.2 miles    
Events      
Averages and records for this station are not official NWS values.
T = Trace of Precipitation, MM = Missing Value Source: Averaged Metar Reports

Daily Weather History Graph

Daily Weather History Graph

Search for Another Location

Airport or City:

Astronomy

Apr. 10, 2013 Rise Set
Actual Time 5:17 AM +03 5:55 PM +03
Civil Twilight 4:54 AM +03 6:18 PM +03
Nautical Twilight 4:26 AM +03 6:45 PM +03
Astronomical Twilight 3:59 AM +03 7:13 PM +03
Moon 5:01 AM +03 (4/10) 6:03 PM +03 (4/10)
Length of Visible Light 13h 24m
Length of Day
12h 37m
Waning Crescent, 0% of the Moon is Illuminated
Apr 10
Waning Crescent
Apr 10
New
Apr 18
First Quarter
Apr 25
Full
May 2
Last Quarter

Hourly Weather History & Observations

Time (+03) Temp. Heat Index Dew Point Humidity Pressure Visibility Wind Dir Wind Speed Gust Speed Precip Events Conditions
12:55 AM 72.0 °F - 62.1 °F 71% 29.77 in 6.2 mi SE 6.9 mph - N/A   Clear
1:55 AM 70.3 °F - 59.5 °F 69% 29.75 in 6.2 mi SSE 8.1 mph - N/A   Clear
3:55 AM 70.9 °F - 64.2 °F 79% 29.75 in 6.2 mi SSE 5.8 mph - N/A   Clear
4:55 AM 69.4 °F - 65.7 °F 88% 29.77 in 6.2 mi ESE 5.8 mph - N/A   Clear
5:55 AM 70.5 °F - 67.3 °F 89% 29.79 in 6.2 mi SE 8.1 mph - N/A   Clear
6:55 AM 72.5 °F - 68.2 °F 86% 29.83 in 6.2 mi Calm Calm - N/A   Partly Cloudy
7:55 AM 77.2 °F - 69.4 °F 77% 29.85 in 6.2 mi South 3.5 mph - N/A   Clear
8:55 AM 81.9 °F 84.4 °F 67.1 °F 61% 29.85 in 6.2 mi SSE 8.1 mph - N/A   Partly Cloudy
9:55 AM 87.3 °F 87.2 °F 61.2 °F 41% 29.84 in 6.2 mi SE 10.4 mph - N/A   Scattered Clouds
10:55 AM 93.2 °F - 47.7 °F 21% 29.82 in 6.2 mi SSE 6.9 mph - N/A   Scattered Clouds
11:55 AM 95.0 °F - 43.7 °F 17% 29.81 in 6.2 mi South 6.9 mph - N/A   Mostly Cloudy
12:55 PM 95.2 °F - 41.9 °F 16% 29.78 in 6.2 mi Variable 3.5 mph - N/A   Mostly Cloudy
1:55 PM 95.5 °F - 43.0 °F 16% 29.77 in 6.2 mi ESE 5.8 mph - N/A   Partly Cloudy
2:55 PM 92.8 °F 92.1 °F 58.6 °F 32% 29.75 in 6.2 mi East 15.0 mph - N/A   Scattered Clouds
3:55 PM 89.2 °F 88.7 °F 60.1 °F 37% 29.75 in 6.2 mi East 17.3 mph 24.2 mph N/A   Clear
4:55 PM 85.6 °F 86.1 °F 62.1 °F 45% 29.76 in 6.2 mi East 17.3 mph - N/A   Clear
5:55 PM 80.4 °F 83.4 °F 68.9 °F 68% 29.77 in 6.2 mi ENE 13.8 mph - N/A   Clear
6:55 PM 79.0 °F - 67.3 °F 67% 29.78 in 6.2 mi East 11.5 mph - N/A   Clear
7:55 PM 77.5 °F - 65.1 °F 65% 29.80 in 6.2 mi East 8.1 mph - N/A   Clear
8:55 PM 76.5 °F - 64.8 °F 67% 29.81 in 6.2 mi East 8.1 mph - N/A   Clear
9:55 PM 75.0 °F - 65.3 °F 72% 29.81 in 6.2 mi East 6.9 mph - N/A   Clear
10:55 PM 74.3 °F - 66.7 °F 77% 29.80 in 6.2 mi East 6.9 mph - N/A   Clear
11:55 PM 73.0 °F - 67.5 °F 83% 29.78 in 6.2 mi East 9.2 mph - N/A   Clear